Weather History for FAGG - April, 2013

Change the Weather History Date:

Friday, April 12, 2013

  Actual Average Record
Temperature  
Mean Temperature 55 °F -  
Max Temperature 67 °F 69 °F 90 °F (2014)
Min Temperature 43 °F 51 °F 43 °F (2013)
Degree Days  
Heating Degree Days 10    
Growing Degree Days 5 (Base 50)    
Moisture  
Dew Point 48 °F    
Average Humidity 73    
Maximum Humidity 88    
Minimum Humidity 40    
Precipitation  
Precipitation 0.00 in - - ()
Sea Level Pressure  
Sea Level Pressure 30.15 in    
Wind  
Wind Speed 5 mph ()    
Max Wind Speed 13 mph    
Max Gust Speed -    
Visibility 13.4 miles    
Events      
Averages and records for this station are not official NWS values.
T = Trace of Precipitation, MM = Missing Value Source: Averaged Metar Reports

Daily Weather History Graph

Daily Weather History Graph

Search for Another Location

Airport or City:

Trip Planner

Search our weather history database for the weather conditions in past years. The results will help you decide how hot, cold, wet, or windy it might be!

Date:

Astronomy

Apr. 12, 2013 Rise Set
Actual Time 6:51 AM SAST 6:10 PM SAST
Civil Twilight 6:25 AM SAST 6:36 PM SAST
Nautical Twilight 5:56 AM SAST 7:05 PM SAST
Astronomical Twilight 5:27 AM SAST 7:34 PM SAST
Moon 8:39 AM SAST (4/12) 7:25 PM SAST (4/12)
Length of Visible Light 12h 10m
Length of Day
11h 19m
Waxing Crescent, 4% of the Moon is Illuminated
Apr 12
Waxing Crescent
Apr 18
First Quarter
Apr 25
Full
May 2
Last Quarter
May 10
New

Hourly Weather History & Observations

Time (SAST) Temp. Windchill Dew Point Humidity Pressure Visibility Wind Dir Wind Speed Gust Speed Precip Events Conditions
12:00 AM 48.2 °F - 44.6 °F 87% 30.24 in - NNW 3.5 mph - N/A   Clear
1:00 AM 48.2 °F - 44.6 °F 87% 30.24 in - NW 3.5 mph - N/A   Clear
2:00 AM 46 °F - 42 °F 83% 30.24 in 12 mi NW 3.5 mph - -  
2:00 AM 46.4 °F 45.2 °F 42.8 °F 87% 30.21 in - NNW 3.5 mph - N/A   Clear
3:00 AM 46.4 °F 45.2 °F 42.8 °F 87% 30.21 in - North 3.5 mph - N/A   Clear
4:00 AM 46.4 °F - 42.8 °F 87% 30.18 in - North 2.3 mph - N/A   Clear
5:00 AM 46.4 °F 45.2 °F 42.8 °F 87% 30.18 in - North 3.5 mph - N/A   Clear
6:00 AM 46.4 °F - 42.8 °F 87% 30.18 in - North 2.3 mph - N/A   Clear
7:00 AM 44.6 °F 43.1 °F 41.0 °F 87% 30.18 in - North 3.5 mph - N/A   Clear
8:00 AM 49 °F - 45 °F 83% 30.21 in 19 mi North 3.5 mph - -  
8:00 AM 50.0 °F - 44.6 °F 82% 30.18 in - North 2.3 mph - N/A   Clear
9:00 AM 59.0 °F - 48.2 °F 67% 30.18 in - NE 3.5 mph - N/A   Clear
10:00 AM 62.6 °F - 50.0 °F 63% 30.18 in - SE 4.6 mph - N/A   Clear
11:00 AM 66 °F - 50 °F 45% 30.17 in 25 mi ESE 8.1 mph - -  
11:00 AM 64.4 °F - 46.4 °F 52% 30.15 in - SE 6.9 mph - N/A   Clear
12:00 PM 64.4 °F - 46.4 °F 52% 30.15 in - SE 10.4 mph - N/A   Clear
1:00 PM 66.2 °F - 48.2 °F 52% 30.12 in - SE 12.7 mph - N/A   Clear
2:00 PM 67 °F - 48 °F 40% 30.11 in 12 mi ESE 11.5 mph - -  
2:00 PM 66.2 °F - 46.4 °F 49% 30.09 in - ESE 11.5 mph - N/A   Clear
3:00 PM 64.4 °F - 50.0 °F 59% 30.09 in - ESE 11.5 mph - N/A   Clear
4:00 PM 66.2 °F - 51.8 °F 60% 30.09 in - ESE 10.4 mph - N/A   Clear
5:00 PM 64 °F - 53 °F 60% 30.09 in 12 mi East 11.5 mph - -  
5:00 PM 64.4 °F - 53.6 °F 68% 30.09 in - East 10.4 mph - N/A   Clear
6:00 PM 60.8 °F - 53.6 °F 77% 30.06 in - East 9.2 mph - N/A   Clear
7:00 PM 59.0 °F - 53.6 °F 82% 30.09 in - East 10.4 mph - N/A   Clear
8:00 PM 58 °F - 53 °F 78% 30.11 in 12 mi East 10.4 mph - -  
8:00 PM 59.0 °F - 53.6 °F 82% 30.09 in - East 8.1 mph - N/A   Clear
9:00 PM 57.2 °F - 51.8 °F 82% 30.09 in - East 5.8 mph - N/A   Clear
10:00 PM 53.6 °F - 50.0 °F 88% 30.09 in - WNW 2.3 mph - N/A   Clear
11:00 PM 51.8 °F - 48.2 °F 88% 30.09 in - NNW 4.6 mph - N/A   Clear